| time (UTC) | temp C | wind direction | speed KPH | gust KPH | rain 1hr cm | rain 24hr cm | rain mn cm | humidity % | barometer mb |
| 20260508174034 | 18 | 273 | 3.2 | 6.4 | 0.00 | 0.00 | 0.00 | 80 | 1016.0 |
| 20260508173535 | 18 | 276 | 0.0 | 4.8 | 0.00 | 0.00 | 0.00 | 81 | 1016.0 |
| 20260508173049 | 18 | 0 | 1.6 | 4.8 | 0.00 | 0.00 | 0.00 | 81 | 1016.0 |
| 20260508172531 | 18 | 0 | 0.0 | 3.2 | 0.00 | 0.00 | 0.00 | 82 | 1016.0 |
| 20260508172037 | 18 | 0 | 0.0 | 3.2 | 0.00 | 0.00 | 0.00 | 83 | 1016.0 |
| 20260508171547 | 17 | 0 | 0.0 | 3.2 | 0.00 | 0.00 | 0.00 | 83 | 1016.1 |
| 20260508171037 | 17 | 0 | 0.0 | 3.2 | 0.00 | 0.00 | 0.00 | 84 | 1016.0 |
| 20260508170535 | 17 | 0 | 0.0 | 3.2 | 0.00 | 0.00 | 0.00 | 84 | 1016.1 |
| 20260508170046 | 17 | 0 | 0.0 | 3.2 | 0.00 | 0.00 | 0.00 | 84 | 1016.1 |
| 20260508165535 | 17 | 284 | 0.0 | 1.6 | 0.00 | 0.00 | 0.00 | 85 | 1016.1 |
| 20260508165035 | 17 | 284 | 0.0 | 1.6 | 0.00 | 0.00 | 0.00 | 85 | 1016.1 |
| 20260508164550 | 17 | 0 | 0.0 | 1.6 | 0.00 | 0.00 | 0.00 | 85 | 1016.2 |
| 20260508164035 | 17 | 0 | 0.0 | 1.6 | 0.00 | 0.00 | 0.00 | 85 | 1016.1 |
| 20260508163537 | 17 | 0 | 0.0 | 3.2 | 0.00 | 0.00 | 0.00 | 86 | 1016.2 |
| 20260508163044 | 16 | 0 | 0.0 | 3.2 | 0.00 | 0.00 | 0.00 | 87 | 1016.2 |
| 20260508162532 | 16 | 0 | 0.0 | 1.6 | 0.00 | 0.00 | 0.00 | 87 | 1016.1 |
| 20260508162033 | 16 | 0 | 0.0 | 1.6 | 0.00 | 0.00 | 0.00 | 87 | 1016.2 |
| 20260508161548 | 16 | 0 | 0.0 | 3.2 | 0.00 | 0.00 | 0.00 | 87 | 1016.2 |
| 20260508161034 | 16 | 0 | 0.0 | 3.2 | 0.00 | 0.00 | 0.00 | 87 | 1016.3 |
| 20260508160534 | 16 | 0 | 0.0 | 3.2 | 0.00 | 0.00 | 0.00 | 87 | 1016.3 |
| 20260508160052 | 16 | 282 | 0.0 | 3.2 | 0.00 | 0.00 | 0.00 | 87 | 1016.2 |
| 20260508155535 | 16 | 303 | 0.0 | 4.8 | 0.00 | 0.00 | 0.00 | 87 | 1016.3 |
| 20260508155035 | 16 | 0 | 0.0 | 4.8 | 0.00 | 0.00 | 0.00 | 88 | 1016.3 |
| 20260508154546 | 16 | 299 | 1.6 | 4.8 | 0.00 | 0.00 | 0.00 | 88 | 1016.3 |
| 20260508154034 | 16 | 310 | 0.0 | 3.2 | 0.00 | 0.00 | 0.00 | 88 | 1016.3 |
| 20260508153535 | 16 | 0 | 0.0 | 3.2 | 0.00 | 0.00 | 0.00 | 88 | 1016.2 |
| 20260508153056 | 16 | 61 | 0.0 | 3.2 | 0.00 | 0.00 | 0.00 | 88 | 1016.2 |
| 20260508152534 | 16 | 5 | 0.0 | 3.2 | 0.00 | 0.00 | 0.00 | 88 | 1016.3 |
| 20260508152034 | 16 | 294 | 0.0 | 3.2 | 0.00 | 0.00 | 0.00 | 88 | 1016.3 |
| 20260508151552 | 16 | 0 | 0.0 | 3.2 | 0.00 | 0.00 | 0.00 | 88 | 1016.3 |
| 20260508151032 | 16 | 294 | 0.0 | 3.2 | 0.00 | 0.00 | 0.00 | 88 | 1016.3 |
| 20260508150535 | 16 | 300 | 0.0 | 3.2 | 0.00 | 0.00 | 0.00 | 88 | 1016.3 |
| 20260508150050 | 16 | 0 | 0.0 | 3.2 | 0.00 | 0.00 | 0.00 | 88 | 1016.2 |
| 20260508145534 | 16 | 249 | 0.0 | 3.2 | 0.00 | 0.00 | 0.00 | 88 | 1016.2 |
| 20260508145036 | 16 | 249 | 0.0 | 3.2 | 0.00 | 0.00 | 0.00 | 88 | 1016.3 |
| 20260508144552 | 16 | 80 | 0.0 | 1.6 | 0.00 | 0.00 | 0.00 | 88 | 1016.2 |
| 20260508144035 | 16 | 0 | 0.0 | 0.0 | 0.00 | 0.00 | 0.00 | 88 | 1016.1 |
| 20260508143535 | 16 | 0 | 0.0 | 1.6 | 0.00 | 0.00 | 0.00 | 89 | 1016.2 |
| 20260508143055 | 16 | 0 | 0.0 | 1.6 | 0.00 | 0.00 | 0.00 | 89 | 1016.2 |
| 20260508142535 | 15 | 0 | 0.0 | 1.6 | 0.00 | 0.00 | 0.00 | 88 | 1016.2 |
| 20260508142035 | 15 | 0 | 0.0 | 3.2 | 0.00 | 0.00 | 0.00 | 88 | 1016.2 |
| 20260508141558 | 15 | 0 | 0.0 | 3.2 | 0.00 | 0.00 | 0.00 | 89 | 1016.1 |
| 20260508141035 | 15 | 0 | 0.0 | 3.2 | 0.00 | 0.00 | 0.00 | 89 | 1016.1 |
| 20260508140534 | 15 | 0 | 0.0 | 3.2 | 0.00 | 0.00 | 0.00 | 89 | 1016.0 |
| 20260508140051 | 15 | 0 | 0.0 | 3.2 | 0.00 | 0.00 | 0.00 | 89 | 1016.0 |
| 20260508135535 | 15 | 0 | 0.0 | 3.2 | 0.00 | 0.00 | 0.00 | 89 | 1016.0 |
| 20260508135036 | 15 | 352 | 0.0 | 3.2 | 0.00 | 0.00 | 0.00 | 89 | 1015.9 |
| 20260508134551 | 15 | 0 | 0.0 | 3.2 | 0.00 | 0.00 | 0.00 | 89 | 1015.9 |
| 20260508134035 | 15 | 0 | 0.0 | 1.6 | 0.00 | 0.00 | 0.00 | 89 | 1015.9 |
| 20260508133535 | 15 | 0 | 0.0 | 3.2 | 0.00 | 0.00 | 0.00 | 89 | 1015.9 |
| 20260508133047 | 15 | 0 | 0.0 | 4.8 | 0.00 | 0.00 | 0.00 | 89 | 1015.9 |
| 20260508132535 | 15 | 0 | 0.0 | 4.8 | 0.00 | 0.00 | 0.00 | 89 | 1015.9 |
| 20260508132034 | 15 | 0 | 0.0 | 1.6 | 0.00 | 0.00 | 0.00 | 88 | 1015.7 |
| 20260508131605 | 15 | 0 | 0.0 | 1.6 | 0.00 | 0.00 | 0.00 | 88 | 1015.7 |
| 20260508131036 | 15 | 0 | 0.0 | 1.6 | 0.00 | 0.00 | 0.00 | 88 | 1015.6 |
| 20260508130538 | 15 | 0 | 0.0 | 1.6 | 0.00 | 0.00 | 0.00 | 88 | 1015.7 |
| 20260508130048 | 15 | 0 | 0.0 | 3.2 | 0.00 | 0.00 | 0.00 | 88 | 1015.6 |
| 20260508125535 | 15 | 0 | 0.0 | 3.2 | 0.00 | 0.00 | 0.00 | 88 | 1015.6 |
| 20260508125034 | 15 | 253 | 0.0 | 3.2 | 0.00 | 0.00 | 0.00 | 88 | 1015.6 |
| 20260508124549 | 15 | 253 | 0.0 | 1.6 | 0.00 | 0.00 | 0.00 | 88 | 1015.6 |
| 20260508124036 | 15 | 0 | 0.0 | 3.2 | 0.00 | 0.00 | 0.00 | 88 | 1015.6 |
| 20260508123533 | 15 | 0 | 0.0 | 3.2 | 0.00 | 0.00 | 0.00 | 88 | 1015.5 |
| 20260508123106 | 15 | 5 | 0.0 | 1.6 | 0.00 | 0.00 | 0.00 | 88 | 1015.5 |
| 20260508122534 | 15 | 0 | 0.0 | 1.6 | 0.00 | 0.00 | 0.00 | 88 | 1015.5 |
| 20260508122031 | 15 | 0 | 0.0 | 3.2 | 0.00 | 0.00 | 0.00 | 88 | 1015.5 |
| 20260508121553 | 15 | 0 | 0.0 | 3.2 | 0.00 | 0.00 | 0.00 | 88 | 1015.5 |
| 20260508121031 | 15 | 0 | 0.0 | 3.2 | 0.00 | 0.00 | 0.00 | 88 | 1015.5 |
| 20260508120534 | 15 | 0 | 0.0 | 1.6 | 0.00 | 0.00 | 0.00 | 88 | 1015.5 |
| 20260508120107 | 15 | 0 | 0.0 | 3.2 | 0.00 | 0.00 | 0.00 | 88 | 1015.5 |
| 20260508115531 | 15 | 0 | 0.0 | 3.2 | 0.00 | 0.00 | 0.00 | 88 | 1015.4 |
| 20260508115034 | 15 | 0 | 0.0 | 3.2 | 0.00 | 0.00 | 0.00 | 88 | 1015.4 |
| 20260508114557 | 16 | 0 | 0.0 | 1.6 | 0.00 | 0.00 | 0.00 | 88 | 1015.4 |
| 20260508114037 | 16 | 0 | 0.0 | 1.6 | 0.00 | 0.00 | 0.00 | 88 | 1015.4 |
| 20260508113535 | 16 | 0 | 0.0 | 1.6 | 0.00 | 0.00 | 0.00 | 88 | 1015.4 |
| 20260508113108 | 16 | 0 | 0.0 | 1.6 | 0.00 | 0.00 | 0.00 | 88 | 1015.4 |
| 20260508112536 | 15 | 0 | 0.0 | 1.6 | 0.00 | 0.00 | 0.00 | 88 | 1015.4 |
| 20260508112033 | 15 | 0 | 0.0 | 1.6 | 0.00 | 0.00 | 0.00 | 88 | 1015.4 |
| 20260508111550 | 16 | 0 | 0.0 | 3.2 | 0.00 | 0.00 | 0.00 | 88 | 1015.5 |
| 20260508111034 | 16 | 0 | 0.0 | 3.2 | 0.00 | 0.00 | 0.00 | 88 | 1015.5 |
| 20260508110535 | 16 | 0 | 0.0 | 3.2 | 0.00 | 0.00 | 0.00 | 88 | 1015.4 |
| 20260508110056 | 16 | 0 | 0.0 | 3.2 | 0.00 | 0.00 | 0.00 | 88 | 1015.4 |
| 20260508105534 | 16 | 223 | 0.0 | 3.2 | 0.00 | 0.00 | 0.00 | 88 | 1015.3 |
| 20260508105034 | 16 | 223 | 0.0 | 3.2 | 0.00 | 0.00 | 0.00 | 88 | 1015.4 |
| 20260508104551 | 16 | 0 | 0.0 | 3.2 | 0.00 | 0.00 | 0.00 | 88 | 1015.4 |
| 20260508104032 | 16 | 0 | 0.0 | 1.6 | 0.00 | 0.00 | 0.00 | 88 | 1015.4 |
| 20260508103532 | 16 | 0 | 0.0 | 1.6 | 0.00 | 0.00 | 0.00 | 88 | 1015.4 |
| 20260508103059 | 16 | 0 | 0.0 | 1.6 | 0.00 | 0.00 | 0.00 | 88 | 1015.4 |
| 20260508102533 | 16 | 0 | 0.0 | 3.2 | 0.00 | 0.00 | 0.00 | 88 | 1015.5 |
| 20260508102032 | 16 | 223 | 0.0 | 3.2 | 0.00 | 0.00 | 0.00 | 88 | 1015.5 |
| 20260508101553 | 16 | 223 | 0.0 | 0.0 | 0.00 | 0.00 | 0.00 | 88 | 1015.6 |
| 20260508101034 | 16 | 0 | 0.0 | 0.0 | 0.00 | 0.00 | 0.00 | 88 | 1015.6 |
| 20260508100532 | 16 | 0 | 0.0 | 1.6 | 0.00 | 0.00 | 0.00 | 88 | 1015.6 |
| 20260508100045 | 16 | 0 | 0.0 | 4.8 | 0.00 | 0.00 | 0.00 | 88 | 1015.6 |
| 20260508095533 | 16 | 0 | 0.0 | 6.4 | 0.00 | 0.00 | 0.00 | 88 | 1015.6 |
| 20260508095038 | 16 | 223 | 1.6 | 6.4 | 0.00 | 0.00 | 0.00 | 88 | 1015.6 |
| 20260508094546 | 16 | 221 | 0.0 | 3.2 | 0.00 | 0.00 | 0.00 | 88 | 1015.6 |
| 20260508094032 | 16 | 0 | 0.0 | 1.6 | 0.00 | 0.00 | 0.00 | 88 | 1015.6 |
| 20260508093532 | 16 | 0 | 0.0 | 1.6 | 0.00 | 0.00 | 0.00 | 88 | 1015.6 |
| 20260508093045 | 16 | 0 | 0.0 | 1.6 | 0.00 | 0.00 | 0.00 | 88 | 1015.6 |
| 20260508092532 | 16 | 0 | 0.0 | 3.2 | 0.00 | 0.00 | 0.00 | 88 | 1015.6 |
| 20260508092032 | 16 | 0 | 0.0 | 3.2 | 0.00 | 0.00 | 0.00 | 88 | 1015.5 |
| 20260508091542 | 16 | 0 | 0.0 | 3.2 | 0.00 | 0.00 | 0.00 | 88 | 1015.6 |
| 20260508091032 | 16 | 0 | 0.0 | 3.2 | 0.00 | 0.00 | 0.00 | 88 | 1015.5 |
| 20260508090533 | 16 | 261 | 0.0 | 3.2 | 0.00 | 0.00 | 0.00 | 88 | 1015.6 |
| 20260508090050 | 16 | 0 | 0.0 | 3.2 | 0.00 | 0.00 | 0.00 | 88 | 1015.7 |
| 20260508085532 | 16 | 0 | 0.0 | 3.2 | 0.00 | 0.00 | 0.00 | 88 | 1015.7 |
| 20260508085031 | 16 | 200 | 0.0 | 3.2 | 0.00 | 0.00 | 0.00 | 88 | 1015.7 |
| 20260508084543 | 16 | 0 | 0.0 | 0.0 | 0.00 | 0.00 | 0.00 | 88 | 1015.8 |
| 20260508084034 | 16 | 0 | 0.0 | 1.6 | 0.00 | 0.00 | 0.00 | 88 | 1015.7 |
| 20260508083532 | 16 | 0 | 0.0 | 1.6 | 0.00 | 0.00 | 0.00 | 88 | 1015.9 |
| 20260508083048 | 16 | 0 | 0.0 | 1.6 | 0.00 | 0.00 | 0.00 | 88 | 1016.0 |
| 20260508082534 | 16 | 0 | 0.0 | 0.0 | 0.00 | 0.00 | 0.00 | 88 | 1016.0 |
| 20260508082033 | 16 | 0 | 0.0 | 0.0 | 0.00 | 0.00 | 0.00 | 88 | 1016.0 |
| 20260508081546 | 16 | 0 | 0.0 | 1.6 | 0.00 | 0.00 | 0.00 | 88 | 1016.0 |
| 20260508081031 | 16 | 0 | 0.0 | 1.6 | 0.00 | 0.00 | 0.00 | 88 | 1016.1 |
| 20260508080532 | 16 | 0 | 0.0 | 1.6 | 0.00 | 0.00 | 0.00 | 88 | 1016.1 |
| 20260508080045 | 16 | 0 | 0.0 | 1.6 | 0.00 | 0.00 | 0.00 | 88 | 1016.1 |
| 20260508075532 | 16 | 0 | 0.0 | 1.6 | 0.00 | 0.00 | 0.00 | 88 | 1016.1 |
| 20260508075033 | 16 | 0 | 0.0 | 1.6 | 0.00 | 0.00 | 0.00 | 89 | 1016.1 |
| 20260508074547 | 16 | 0 | 0.0 | 1.6 | 0.00 | 0.00 | 0.00 | 88 | 1016.2 |
| 20260508074032 | 16 | 0 | 0.0 | 3.2 | 0.00 | 0.00 | 0.00 | 89 | 1016.2 |
| 20260508073532 | 16 | 0 | 0.0 | 3.2 | 0.00 | 0.00 | 0.00 | 89 | 1016.1 |
| 20260508073053 | 16 | 0 | 0.0 | 3.2 | 0.00 | 0.00 | 0.00 | 89 | 1016.2 |
| 20260508072534 | 16 | 0 | 0.0 | 1.6 | 0.00 | 0.00 | 0.00 | 89 | 1016.3 |
| 20260508072034 | 16 | 0 | 0.0 | 1.6 | 0.00 | 0.00 | 0.00 | 89 | 1016.3 |
| 20260508071543 | 16 | 0 | 0.0 | 1.6 | 0.00 | 0.00 | 0.00 | 89 | 1016.3 |
| 20260508071032 | 16 | 0 | 0.0 | 6.4 | 0.00 | 0.00 | 0.00 | 89 | 1016.2 |
| 20260508070533 | 16 | 0 | 0.0 | 6.4 | 0.00 | 0.00 | 0.00 | 89 | 1016.3 |
| 20260508070051 | 16 | 219 | 3.2 | 6.4 | 0.00 | 0.00 | 0.00 | 89 | 1016.3 |
| 20260508065533 | 16 | 226 | 1.6 | 6.4 | 0.00 | 0.00 | 0.00 | 88 | 1016.3 |
| 20260508065035 | 16 | 221 | 0.0 | 4.8 | 0.00 | 0.00 | 0.00 | 89 | 1016.4 |
| 20260508064608 | 16 | 217 | 0.0 | 1.6 | 0.00 | 0.00 | 0.00 | 89 | 1016.4 |
| 20260508064032 | 16 | 217 | 0.0 | 8.0 | 0.00 | 0.00 | 0.00 | 88 | 1016.3 |
| 20260508063532 | 16 | 217 | 0.0 | 8.0 | 0.00 | 0.00 | 0.00 | 88 | 1016.4 |
| 20260508063059 | 16 | 214 | 1.6 | 6.4 | 0.00 | 0.00 | 0.00 | 88 | 1016.4 |
| 20260508062533 | 16 | 225 | 1.6 | 6.4 | 0.00 | 0.00 | 0.00 | 89 | 1016.4 |
| 20260508062035 | 16 | 0 | 0.0 | 12.9 | 0.00 | 0.00 | 0.00 | 89 | 1016.4 |
| 20260508061547 | 16 | 223 | 1.6 | 12.9 | 0.00 | 0.00 | 0.00 | 88 | 1016.4 |
| 20260508061032 | 16 | 199 | 1.6 | 12.9 | 0.00 | 0.00 | 0.00 | 88 | 1016.4 |
| 20260508060532 | 16 | 215 | 1.6 | 6.4 | 0.00 | 0.00 | 0.00 | 88 | 1016.5 |
| 20260508060046 | 16 | 219 | 3.2 | 6.4 | 0.00 | 0.00 | 0.00 | 88 | 1016.5 |
| 20260508055533 | 16 | 240 | 1.6 | 4.8 | 0.00 | 0.00 | 0.00 | 88 | 1016.5 |
| 20260508055032 | 16 | 0 | 1.6 | 4.8 | 0.00 | 0.00 | 0.00 | 88 | 1016.4 |
| 20260508054545 | 16 | 217 | 0.0 | 4.8 | 0.00 | 0.00 | 0.00 | 89 | 1016.5 |
| 20260508054034 | 16 | 222 | 0.0 | 4.8 | 0.00 | 0.00 | 0.00 | 89 | 1016.4 |
| 20260508053532 | 16 | 0 | 0.0 | 3.2 | 0.00 | 0.00 | 0.00 | 89 | 1016.4 |
| 20260508053053 | 16 | 205 | 0.0 | 4.8 | 0.00 | 0.00 | 0.00 | 89 | 1016.4 |
| 20260508052532 | 16 | 225 | 0.0 | 6.4 | 0.00 | 0.00 | 0.00 | 89 | 1016.5 |
| 20260508052032 | 16 | 237 | 1.6 | 6.4 | 0.00 | 0.00 | 0.00 | 89 | 1016.5 |
| 20260508051546 | 16 | 218 | 1.6 | 6.4 | 0.00 | 0.00 | 0.00 | 89 | 1016.5 |
| 20260508051032 | 16 | 0 | 0.0 | 3.2 | 0.00 | 0.00 | 0.00 | 89 | 1016.5 |
| 20260508050532 | 16 | 275 | 0.0 | 4.8 | 0.00 | 0.00 | 0.00 | 89 | 1016.4 |
| 20260508050047 | 16 | 287 | 1.6 | 6.4 | 0.00 | 0.00 | 0.00 | 89 | 1016.5 |
| 20260508045531 | 16 | 261 | 1.6 | 6.4 | 0.00 | 0.00 | 0.00 | 89 | 1016.4 |
| 20260508045031 | 16 | 257 | 0.0 | 4.8 | 0.00 | 0.00 | 0.00 | 89 | 1016.4 |
| 20260508044544 | 16 | 269 | 1.6 | 4.8 | 0.00 | 0.00 | 0.00 | 89 | 1016.4 |
| 20260508044032 | 16 | 0 | 1.6 | 4.8 | 0.00 | 0.00 | 0.00 | 89 | 1016.4 |
| 20260508043532 | 16 | 285 | 0.0 | 4.8 | 0.00 | 0.00 | 0.00 | 89 | 1016.3 |
| 20260508043055 | 16 | 299 | 0.0 | 4.8 | 0.00 | 0.00 | 0.00 | 89 | 1016.2 |
| 20260508042533 | 16 | 0 | 0.0 | 6.4 | 0.00 | 0.00 | 0.00 | 88 | 1016.1 |
| 20260508042035 | 16 | 0 | 1.6 | 6.4 | 0.00 | 0.00 | 0.00 | 88 | 1016.0 |
| 20260508041552 | 16 | 225 | 1.6 | 4.8 | 0.00 | 0.00 | 0.00 | 88 | 1015.9 |
| 20260508041032 | 16 | 244 | 1.6 | 4.8 | 0.00 | 0.00 | 0.00 | 89 | 1015.8 |
| 20260508040532 | 16 | 269 | 1.6 | 6.4 | 0.00 | 0.00 | 0.00 | 88 | 1015.8 |
| 20260508040050 | 16 | 271 | 3.2 | 6.4 | 0.00 | 0.00 | 0.00 | 88 | 1015.7 |
| 20260508035532 | 16 | 0 | 1.6 | 8.0 | 0.00 | 0.00 | 0.00 | 88 | 1015.7 |
| 20260508035033 | 16 | 294 | 3.2 | 8.0 | 0.00 | 0.00 | 0.00 | 88 | 1015.6 |
| 20260508034548 | 16 | 232 | 3.2 | 6.4 | 0.00 | 0.00 | 0.00 | 88 | 1015.6 |
| 20260508034032 | 16 | 225 | 1.6 | 6.4 | 0.00 | 0.00 | 0.00 | 88 | 1015.5 |
| 20260508033531 | 16 | 260 | 3.2 | 6.4 | 0.00 | 0.00 | 0.00 | 88 | 1015.4 |
| 20260508033041 | 16 | 0 | 1.6 | 6.4 | 0.00 | 0.00 | 0.00 | 88 | 1015.3 |
| 20260508032532 | 16 | 238 | 1.6 | 6.4 | 0.00 | 0.00 | 0.00 | 88 | 1015.3 |
| 20260508032032 | 16 | 279 | 1.6 | 6.4 | 0.00 | 0.00 | 0.00 | 88 | 1015.2 |
| 20260508031550 | 16 | 304 | 1.6 | 6.4 | 0.00 | 0.00 | 0.00 | 87 | 1015.2 |
| 20260508031032 | 16 | 242 | 1.6 | 4.8 | 0.00 | 0.00 | 0.00 | 87 | 1015.1 |
| 20260508030532 | 16 | 284 | 1.6 | 6.4 | 0.00 | 0.00 | 0.00 | 87 | 1015.1 |
| 20260508030048 | 16 | 291 | 1.6 | 6.4 | 0.00 | 0.00 | 0.00 | 87 | 1015.1 |
| 20260508025533 | 16 | 321 | 3.2 | 6.4 | 0.00 | 0.00 | 0.00 | 87 | 1015.0 |
| 20260508025034 | 16 | 268 | 1.6 | 4.8 | 0.00 | 0.00 | 0.00 | 87 | 1015.0 |
| 20260508024547 | 16 | 271 | 1.6 | 4.8 | 0.00 | 0.00 | 0.00 | 86 | 1015.0 |
| 20260508024032 | 16 | 271 | 1.6 | 6.4 | 0.00 | 0.00 | 0.00 | 86 | 1014.9 |
| 20260508023532 | 16 | 265 | 3.2 | 8.0 | 0.00 | 0.00 | 0.00 | 86 | 1014.9 |
| 20260508023049 | 16 | 248 | 3.2 | 8.0 | 0.00 | 0.00 | 0.00 | 86 | 1014.8 |
| 20260508022531 | 16 | 323 | 3.2 | 8.0 | 0.00 | 0.00 | 0.00 | 85 | 1014.7 |
| 20260508022033 | 16 | 252 | 1.6 | 6.4 | 0.00 | 0.00 | 0.00 | 85 | 1014.7 |
| 20260508021555 | 16 | 241 | 1.6 | 4.8 | 0.00 | 0.00 | 0.00 | 85 | 1014.6 |
| 20260508021032 | 16 | 298 | 1.6 | 4.8 | 0.00 | 0.00 | 0.00 | 85 | 1014.6 |
| 20260508020532 | 16 | 275 | 3.2 | 4.8 | 0.00 | 0.00 | 0.00 | 85 | 1014.6 |
| 20260508020050 | 16 | 309 | 1.6 | 9.7 | 0.00 | 0.00 | 0.00 | 84 | 1014.6 |
| 20260508015532 | 16 | 261 | 3.2 | 9.7 | 0.00 | 0.00 | 0.00 | 84 | 1014.6 |
| 20260508015032 | 16 | 295 | 1.6 | 8.0 | 0.00 | 0.00 | 0.00 | 83 | 1014.5 |
| 20260508014541 | 17 | 287 | 3.2 | 8.0 | 0.00 | 0.00 | 0.00 | 83 | 1014.6 |
| 20260508014033 | 17 | 301 | 3.2 | 8.0 | 0.00 | 0.00 | 0.00 | 82 | 1014.5 |
| 20260508013532 | 17 | 267 | 1.6 | 6.4 | 0.00 | 0.00 | 0.00 | 82 | 1014.6 |
| 20260508013054 | 17 | 282 | 3.2 | 6.4 | 0.00 | 0.00 | 0.00 | 82 | 1014.5 |
| 20260508012532 | 17 | 267 | 1.6 | 6.4 | 0.00 | 0.00 | 0.00 | 82 | 1014.6 |
| 20260508012032 | 17 | 280 | 1.6 | 8.0 | 0.00 | 0.00 | 0.00 | 81 | 1014.5 |
| 20260508011554 | 17 | 240 | 1.6 | 8.0 | 0.00 | 0.00 | 0.00 | 81 | 1014.5 |
| 20260508011031 | 17 | 284 | 1.6 | 8.0 | 0.00 | 0.00 | 0.00 | 81 | 1014.6 |
| 20260508010532 | 17 | 225 | 1.6 | 8.0 | 0.00 | 0.00 | 0.00 | 81 | 1014.5 |
| 20260508010050 | 17 | 294 | 4.8 | 9.7 | 0.00 | 0.00 | 0.00 | 81 | 1014.5 |
| 20260508005531 | 17 | 281 | 4.8 | 9.7 | 0.00 | 0.00 | 0.00 | 81 | 1014.6 |
| 20260508005034 | 17 | 238 | 3.2 | 8.0 | 0.00 | 0.00 | 0.00 | 80 | 1014.6 |
| 20260508004545 | 18 | 242 | 3.2 | 8.0 | 0.00 | 0.00 | 0.00 | 80 | 1014.5 |
| 20260508004035 | 18 | 285 | 3.2 | 8.0 | 0.00 | 0.00 | 0.00 | 80 | 1014.5 |
| 20260508003532 | 18 | 264 | 3.2 | 8.0 | 0.00 | 0.00 | 0.00 | 80 | 1014.5 |
| 20260508003043 | 18 | 281 | 1.6 | 11.3 | 0.00 | 0.00 | 0.00 | 81 | 1014.5 |
| 20260508002532 | 17 | 260 | 4.8 | 11.3 | 0.00 | 0.00 | 0.00 | 81 | 1014.6 |
| 20260508002032 | 17 | 290 | 1.6 | 9.7 | 0.00 | 0.00 | 0.00 | 81 | 1014.6 |
| 20260508001611 | 17 | 325 | 3.2 | 11.3 | 0.00 | 0.00 | 0.00 | 81 | 1014.6 |
| 20260508001032 | 17 | 312 | 3.2 | 11.3 | 0.00 | 0.00 | 0.00 | 81 | 1014.6 |
| 20260508000533 | 17 | 285 | 4.8 | 11.3 | 0.00 | 0.00 | 0.00 | 80 | 1014.6 |
| 20260508000050 | 18 | 248 | 3.2 | 11.3 | 0.00 | 0.00 | 0.00 | 80 | 1014.7 |
| 20260507235533 | 18 | 305 | 1.6 | 11.3 | 0.00 | 0.00 | 0.00 | 80 | 1014.8 |
| 20260507235031 | 18 | 308 | 3.2 | 11.3 | 0.00 | 0.00 | 0.00 | 80 | 1014.8 |
| 20260507234549 | 18 | 313 | 4.8 | 11.3 | 0.00 | 0.00 | 0.00 | 80 | 1014.7 |
| 20260507234056 | 18 | 265 | 1.6 | 11.3 | 0.00 | 0.00 | 0.00 | 80 | 1014.7 |
| 20260507233533 | 18 | 306 | 4.8 | 12.9 | 0.00 | 0.00 | 0.00 | 80 | 1014.7 |
| 20260507233048 | 18 | 315 | 4.8 | 12.9 | 0.00 | 0.00 | 0.00 | 80 | 1014.7 |
| 20260507232531 | 18 | 292 | 4.8 | 12.9 | 0.00 | 0.00 | 0.00 | 80 | 1014.7 |
| 20260507232034 | 18 | 269 | 4.8 | 16.1 | 0.00 | 0.00 | 0.00 | 80 | 1014.6 |
| 20260507231545 | 18 | 5 | 4.8 | 16.1 | 0.00 | 0.00 | 0.00 | 80 | 1014.7 |
| 20260507231032 | 18 | 322 | 3.2 | 12.9 | 0.00 | 0.00 | 0.00 | 80 | 1014.6 |
| 20260507230532 | 18 | 233 | 4.8 | 12.9 | 0.00 | 0.00 | 0.00 | 80 | 1014.6 |
| 20260507230044 | 18 | 273 | 4.8 | 12.9 | 0.00 | 0.00 | 0.00 | 79 | 1014.6 |
| 20260507225532 | 18 | 249 | 4.8 | 12.9 | 0.00 | 0.00 | 0.00 | 79 | 1014.7 |
| 20260507225032 | 18 | 287 | 4.8 | 12.9 | 0.00 | 0.00 | 0.00 | 79 | 1014.7 |
| 20260507224552 | 18 | 312 | 3.2 | 12.9 | 0.00 | 0.00 | 0.00 | 79 | 1014.7 |
| 20260507224032 | 18 | 236 | 4.8 | 17.7 | 0.00 | 0.00 | 0.00 | 79 | 1014.8 |
| 20260507223532 | 18 | 273 | 4.8 | 17.7 | 0.00 | 0.00 | 0.00 | 79 | 1014.9 |
| 20260507223050 | 18 | 271 | 8.0 | 17.7 | 0.00 | 0.00 | 0.00 | 78 | 1014.9 |
| 20260507222532 | 18 | 263 | 4.8 | 12.9 | 0.00 | 0.00 | 0.00 | 79 | 1014.9 |
| 20260507222032 | 18 | 229 | 6.4 | 12.9 | 0.00 | 0.00 | 0.00 | 78 | 1014.9 |
| 20260507221543 | 18 | 278 | 3.2 | 14.5 | 0.00 | 0.00 | 0.00 | 78 | 1015.0 |
| 20260507221031 | 19 | 265 | 3.2 | 14.5 | 0.00 | 0.00 | 0.00 | 77 | 1015.0 |
| 20260507220531 | 19 | 277 | 4.8 | 12.9 | 0.00 | 0.00 | 0.00 | 77 | 1015.1 |
| 20260507220054 | 19 | 284 | 4.8 | 16.1 | 0.00 | 0.00 | 0.00 | 77 | 1015.1 |
| 20260507215535 | 19 | 201 | 6.4 | 16.1 | 0.00 | 0.00 | 0.00 | 77 | 1015.1 |
| 20260507215031 | 19 | 299 | 6.4 | 17.7 | 0.00 | 0.00 | 0.00 | 77 | 1015.1 |
| 20260507214552 | 19 | 265 | 8.0 | 17.7 | 0.00 | 0.00 | 0.00 | 77 | 1015.2 |
| 20260507214033 | 19 | 283 | 4.8 | 16.1 | 0.00 | 0.00 | 0.00 | 77 | 1015.2 |
| 20260507213531 | 19 | 272 | 6.4 | 16.1 | 0.00 | 0.00 | 0.00 | 77 | 1015.3 |
| 20260507213049 | 20 | 293 | 6.4 | 14.5 | 0.00 | 0.00 | 0.00 | 76 | 1015.3 |
| 20260507212531 | 20 | 272 | 6.4 | 14.5 | 0.00 | 0.00 | 0.00 | 76 | 1015.2 |
| 20260507212031 | 20 | 242 | 6.4 | 14.5 | 0.00 | 0.00 | 0.00 | 75 | 1015.3 |
| 20260507211551 | 20 | 242 | 8.0 | 12.9 | 0.00 | 0.00 | 0.00 | 75 | 1015.3 |
| 20260507211034 | 20 | 284 | 6.4 | 14.5 | 0.00 | 0.00 | 0.00 | 76 | 1015.4 |
| 20260507210532 | 20 | 256 | 4.8 | 14.5 | 0.00 | 0.00 | 0.00 | 76 | 1015.4 |
| 20260507210047 | 20 | 254 | 6.4 | 19.3 | 0.00 | 0.00 | 0.00 | 76 | 1015.4 |
| 20260507205535 | 20 | 283 | 6.4 | 19.3 | 0.00 | 0.00 | 0.00 | 77 | 1015.5 |
| 20260507205034 | 20 | 213 | 8.0 | 16.1 | 0.00 | 0.00 | 0.00 | 76 | 1015.5 |
| 20260507204550 | 20 | 282 | 6.4 | 16.1 | 0.00 | 0.00 | 0.00 | 76 | 1015.6 |
| 20260507204034 | 20 | 277 | 8.0 | 19.3 | 0.00 | 0.00 | 0.00 | 77 | 1015.7 |
| 20260507203533 | 20 | 294 | 8.0 | 19.3 | 0.00 | 0.00 | 0.00 | 76 | 1015.5 |
| 20260507203045 | 20 | 219 | 8.0 | 17.7 | 0.00 | 0.00 | 0.00 | 76 | 1015.6 |
| 20260507202531 | 20 | 252 | 8.0 | 17.7 | 0.00 | 0.00 | 0.00 | 77 | 1015.6 |
| 20260507202031 | 20 | 308 | 8.0 | 16.1 | 0.00 | 0.00 | 0.00 | 77 | 1015.7 |
| 20260507201554 | 20 | 292 | 8.0 | 16.1 | 0.00 | 0.00 | 0.00 | 78 | 1015.7 |
| 20260507201031 | 20 | 242 | 9.7 | 16.1 | 0.00 | 0.00 | 0.00 | 77 | 1015.7 |
| 20260507200532 | 20 | 248 | 9.7 | 16.1 | 0.00 | 0.00 | 0.00 | 76 | 1015.7 |
| 20260507200046 | 20 | 244 | 6.4 | 16.1 | 0.00 | 0.00 | 0.00 | 77 | 1015.7 |
| 20260507195533 | 20 | 223 | 8.0 | 16.1 | 0.00 | 0.00 | 0.00 | 76 | 1015.7 |
| 20260507195033 | 20 | 296 | 6.4 | 16.1 | 0.00 | 0.00 | 0.00 | 76 | 1015.6 |
| 20260507194552 | 20 | 250 | 8.0 | 12.9 | 0.00 | 0.00 | 0.00 | 77 | 1015.7 |
| 20260507194031 | 20 | 298 | 6.4 | 12.9 | 0.00 | 0.00 | 0.00 | 77 | 1015.7 |
| 20260507193531 | 20 | 273 | 4.8 | 14.5 | 0.00 | 0.00 | 0.00 | 78 | 1015.6 |
| 20260507193054 | 19 | 243 | 6.4 | 16.1 | 0.00 | 0.00 | 0.00 | 77 | 1015.7 |
| 20260507192532 | 19 | 286 | 6.4 | 16.1 | 0.00 | 0.00 | 0.00 | 79 | 1015.7 |
| 20260507192031 | 18 | 252 | 6.4 | 17.7 | 0.00 | 0.00 | 0.00 | 79 | 1015.8 |
| 20260507191553 | 19 | 324 | 8.0 | 17.7 | 0.00 | 0.00 | 0.00 | 79 | 1015.8 |
| 20260507191031 | 18 | 256 | 8.0 | 16.1 | 0.00 | 0.00 | 0.00 | 78 | 1015.8 |
| 20260507190531 | 18 | 288 | 8.0 | 16.1 | 0.00 | 0.00 | 0.00 | 78 | 1015.9 |
| 20260507190057 | 19 | 277 | 6.4 | 14.5 | 0.00 | 0.00 | 0.00 | 79 | 1015.9 |
| 20260507185532 | 19 | 263 | 8.0 | 16.1 | 0.00 | 0.00 | 0.00 | 80 | 1016.0 |
| 20260507185035 | 19 | 306 | 4.8 | 16.1 | 0.00 | 0.00 | 0.00 | 80 | 1016.1 |
| 20260507184554 | 18 | 259 | 8.0 | 16.1 | 0.00 | 0.00 | 0.00 | 79 | 1016.2 |
| 20260507184031 | 18 | 292 | 8.0 | 16.1 | 0.00 | 0.00 | 0.00 | 79 | 1016.2 |
| 20260507183531 | 18 | 225 | 9.7 | 16.1 | 0.00 | 0.00 | 0.00 | 79 | 1016.2 |
| 20260507183052 | 18 | 288 | 6.4 | 12.9 | 0.00 | 0.00 | 0.00 | 79 | 1016.3 |
| 20260507182532 | 18 | 294 | 6.4 | 14.5 | 0.00 | 0.00 | 0.00 | 79 | 1016.3 |
| 20260507182033 | 18 | 273 | 6.4 | 14.5 | 0.00 | 0.00 | 0.00 | 79 | 1016.2 |
| 20260507181543 | 18 | 266 | 6.4 | 12.9 | 0.00 | 0.00 | 0.00 | 78 | 1016.2 |
| 20260507181035 | 18 | 319 | 4.8 | 12.9 | 0.00 | 0.00 | 0.00 | 79 | 1016.3 |
| 20260507180536 | 18 | 242 | 4.8 | 12.9 | 0.00 | 0.00 | 0.00 | 80 | 1016.3 |
| 20260507180047 | 18 | 303 | 4.8 | 11.3 | 0.00 | 0.00 | 0.00 | 79 | 1016.2 |
| 20260507175535 | 18 | 267 | 4.8 | 11.3 | 0.00 | 0.00 | 0.00 | 79 | 1016.3 |
| 20260507175035 | 18 | 259 | 3.2 | 11.3 | 0.00 | 0.00 | 0.00 | 80 | 1016.4 |
| 20260507174552 | 18 | 302 | 4.8 | 11.3 | 0.00 | 0.00 | 0.00 | 80 | 1016.4 |